Tracking 30995 objects as of 5-Jul-2025
HD Live streaming from Space Station
objects crossing your sky now

ALOS DEB

Track ALOS DEB now!
10-day predictions


NORAD ID: 35418
Int'l Code: 2006-002Z
Perigee: 629.2 km
Apogee: 630.5 km
Inclination: 98.2 °
Period: 97.2 minutes
Semi major axis: 7000 km
RCS: 0.0242 m2 (small)
Launch date: January 24, 2006
Source: Japan (JPN)
Launch site: TANEGASHIMA SPACE CENTER (TNSTA)

Note: This is SATELLITE DEBRIS
Your satellite tracking list
SHAKUNTALA
Track 1 satellite(s)




NASA's NSSDC Master Catalog

Two Line Element Set (TLE):
1 35418U 06002Z   25186.47842126  .00003470  00000-0  44316-3 0  9990
2 35418  98.1580 160.7884 0000924  85.5987  34.1620 14.82098450982674
Source of the keplerian elements: AFSPC